CZ-6A DEB, 56667

Orbit data source: Space-Track

CZ-6A DEB, 56667 is space debris in SSO originally from a launch on Fri, 11 Nov 2022 UTC launched from the Taiyaun Space Center, China (TSC). Debris objects in space refer to the collection of defunct objects orbiting the Earth. Examples of debris include non-operational satellites, rocket bodies, and fragments generated from explosions, collisions, or faulty payload assembly.

Loading next visibility...
Identifier
56667, 2022-151AGT
Orbit
SSO
Country
Flag of CNCN / PRC
Related business
Manufacturer
SAST
Mission
Spacecraft
Bus & Motor
Unknown
Mass
Unknown
Launch date (UTC)
2022-11-11 (4 years ago)
Launch vehicle
Unknown
Launch site
Taiyaun Space Center, China (TSC)
Object type
Payload
Rocket body
Debris
Shape & HBR
Unknown shape, 0.1 m
Radar Cross Section
Medium (>0.1 m² and <1 m²)

Expand to show TLE details & history
Last TLE update: 21 hours ago

TLE from 21 hours ago
0 CZ-6A DEB
1 56667U 22151AGT 26235.69075817  .00002906  00000-0  62672-3 0  9995
2 56667  98.8079 327.9630 0106577 114.2156 247.0222 14.55740901181600
Epoch: 2026-08-23T16:34Z
TLE epoch observation values (Epoch: 2026-08-23T16:34:41.505Z)
Latitude
-0.00004°
Longitude
107.30688°
Altitude
740.082 km
Speed
7.469 km/s
True Right ascension
21h 51m 51s
True Declination
0° 00' 00"
Sunlit
Object was in full shadow at epoch
Visualization orbit readout
Latitude
Unknown
Longitude
Unknown
Altitude
Unknown
Speed
Unknown
Apparent Right ascension
Unknown
Apparent Declination
Unknown
Sunlit
N/A
Visualization observer readout
Local Sidereal Time
04:20:26
Azimuth
Unknown
Elevation
Unknown
Doppler factor
Unknown
Orbital elements
Apogee altitude
779.555 km
Perigee altitude
628.595 km
Semi-major axis
7,082.212 km
Eccentricity
0.01066
Inclination
98.8079°
RAAN
327.963°
Arg. of periapsis
114.2156°
True anomaly
245.90371°
Mean anomaly
247.0222°
Eccentric anomaly
246.46237°
Mean motion
3.64158 °/min
Orbital period
98.86 mins
BSTAR
0.00062672
Loading maneuver chart data...
Computing Atmospheric mass density...
Loading historical data...
Loading historical data...
Loading historical data...
Loading historical data...
Loading historical data...
Loading historical data...
Loading historical data...

Documentation

Showing up to 5 results
|